Regional Weather Roundup
Issued by NWS

Home | Current Version | Previous Version | Graphics & Text | Print | Product List | Glossary On
Versions: 1 2 3 4 5 6 7 8 9 10 11 12 13 14 15 16 17 18 19 20 21 22 23 24 25 26 27 28 29 30 31 32 33 34 35 36 37 38 39 40 41 42 43 44 45 46 47 48 49 50
000
ASUS43 KOAX 311210
RWRNE

WEATHER ROUNDUP FOR NEBRASKA
NATIONAL WEATHER SERVICE OMAHA NE
700 AM CDT FRI OCT 31 2014

NOTES: SATELLITE DATA IS BEING USED TO AUGMENT CLOUD COVER ABOVE
       12000 FEET.
       "FAIR" INDICATES FEW OR NO CLOUDS BELOW 12,000 FEET WITH NO
       SIGNIFICANT WEATHER AND/OR OBSTRUCTIONS TO VISIBILITY.

  * THESE STATIONS DO NOT REPORT WEATHER SUCH AS RAIN...SNOW OR FOG.

NEZ001>004-019>022-054>056-311300-
NEBRASKA PANHANDLE

CITY           SKY/WX    TMP DP  RH WIND       PRES   REMARKS
SCOTTSBLUFF    PTCLDY    30  28  92 E12       30.40F WCI  20
6HR MIN TEMP:  30; 6HR MAX TEMP:  35;

ALLIANCE       CLOUDY    30  29  96 S10       30.43S FOG     WCI  21
6HR MIN TEMP:  22; 6HR MAX TEMP:  30;

CHADRON        MOCLDY    27  24  89 E7        30.42F WCI  19
6HR MIN TEMP:  20; 6HR MAX TEMP:  28;

KIMBALL        CLEAR     28  28  99 SE8       30.36F WCI  20
SIDNEY         PTCLDY    25  23  92 SE7       30.43S WCI  17
6HR MIN TEMP:  24; 6HR MAX TEMP:  31;

$$

NEZ057>060-069>072-079>082-311300-
SOUTHWEST NEBRASKA

CITY           SKY/WX    TMP DP  RH WIND       PRES   REMARKS
NORTH PLATTE   CLOUDY    30  26  85 E6        30.51R WCI  24
6HR MIN TEMP:  28; 6HR MAX TEMP:  32;

IMPERIAL       FOG       28  26  92 NE7       30.49R VSB 1/2 WCI  21
6HR MIN TEMP:  24; 6HR MAX TEMP:  33;

LEXINGTON      MOCLDY    30  25  80 NE12      30.53R WCI  21
MCCOOK         CLOUDY    32  28  85 NE8       30.52R WCI  25
6HR MIN TEMP:  28; 6HR MAX TEMP:  35;

OGALLALA       CLOUDY    30  30  99 E6        30.49R FOG     WCI  24
$$

NEZ005>010-023>029-035>040-094-311300-
NORTH CENTRAL NEBRASKA

CITY           SKY/WX    TMP DP  RH WIND       PRES   REMARKS
VALENTINE      MOCLDY    22  18  85 E6        30.52F WCI  14
6HR MIN TEMP:  22; 6HR MAX TEMP:  32;

AINSWORTH      MOCLDY    23  19  86 CALM      30.53S
BROKEN BOW     CLOUDY    29  22  75 NE12      30.52R WCI  19
6HR MIN TEMP:  29; 6HR MAX TEMP:  35;

O`NEILL        PTCLDY    19  18  94 NW6       30.56S WCI  11
ORD            MOCLDY    26  20  77 NE6       30.53F WCI  19
6HR MIN TEMP:  27; 6HR MAX TEMP:  35;

THEDFORD       CLOUDY    30  26  86 E3        30.51S
$$

NEZ041-046>049-061>064-073>077-083>087-311300-
SOUTH CENTRAL NEBRASKA

CITY           SKY/WX    TMP DP  RH WIND       PRES   REMARKS
GRAND ISLAND   PTCLDY    28  21  75 N9        30.56R WCI  19
6HR MIN TEMP:  28; 6HR MAX TEMP:  37;

AURORA         CLEAR     27  18  69 N8        30.55R WCI  18
HASTINGS       MOCLDY    29  21  72 NE16      30.53R WCI  17
6HR MIN TEMP:  29; 6HR MAX TEMP:  37;

HEBRON         CLEAR     29  19  65 N8        30.54R WCI  21
HOLDREGE       CLOUDY    30  24  78 N14       30.52R WCI  19
KEARNEY *      CLOUDY    28  21  74 N13       30.53S WCI  18
YORK           CLEAR     27  19  74 N13       30.54S WCI  16
$$

NEZ011>018-030>034-042>045-311300-
NORTHEAST NEBRASKA

CITY           SKY/WX    TMP DP  RH WIND       PRES   REMARKS
NORFOLK        CLEAR     25  19  78 N8        30.55R WCI  16
6HR MIN TEMP:  25; 6HR MAX TEMP:  35;

ALBION         MOCLDY    23  16  75 CALM      30.55S
BLAIR          CLEAR     29  21  72 N12       30.52R WCI  19
FREMONT        CLEAR     28  21  74 NW9       30.55R WCI  20
TEKAMAH        CLEAR     28  20  71 N13       30.56R WCI  17
6HR MIN TEMP:  28; 6HR MAX TEMP:  38;

WAYNE          CLEAR     24  19  83 N7        30.56S WCI  16
$$

NEZ050>053-065>068-078-088>093-311300-
SOUTHEAST NEBRASKA

CITY           SKY/WX    TMP DP  RH WIND       PRES   REMARKS
LINCOLN        CLEAR     28  20  71 N14       30.55R WCI  17
6HR MIN TEMP:  28; 6HR MAX TEMP:  41;

OMAHA EPPLEY   CLEAR     29  21  72 N14       30.54R WCI  18
6HR MIN TEMP:  29; 6HR MAX TEMP:  40;

BEATRICE       CLEAR     27  22  82 N9        30.53R WCI  18
FALLS CITY     CLEAR     32  22  66 N10G22    30.48R WCI  24
6HR MIN TEMP:  32; 6HR MAX TEMP:  48; 6HR PCP: TRACE;

NEBRASKA CITY  CLEAR     31  17  56 N12G22    30.50R WCI  21
PLATTSMOUTH    PTCLDY    30  19  64 N10       30.51R WCI  21
$$

NEZ044-045-051>053-067-311300-
OMAHA AREA

CITY           SKY/WX    TMP DP  RH WIND       PRES   REMARKS
OMAHA EPPLEY   CLEAR     29  21  72 N14       30.54R WCI  18
6HR MIN TEMP:  29; 6HR MAX TEMP:  40;

BLAIR          CLEAR     29  21  72 N12       30.52R WCI  19
FREMONT        CLEAR     28  21  74 NW9       30.55R WCI  20
MILLARD        CLEAR     31  21  67 N7G17     30.53R WCI  24
OFFUTT AFB     CLEAR     30  20  68 N9        30.52R WCI  21
PLATTSMOUTH    PTCLDY    30  19  64 N10       30.51R WCI  21
WAHOO          FAIR      27  20  75 N7        30.54S WCI  20
$$



USA.gov is the U.S. government's official web portal to all federal, state and local government web resources and services.